Proserpine Hamilton Isla, Australia

8:10 AM AEST on January 17, 2017 (GMT +1000)
Hamilton Island

Weather History for YBHM - November, 2012

Change the Weather History Date:

Wednesday, November 7, 2012

  Actual Average Record
Temperature  
Mean Temperature 76 °F -  
Max Temperature 80 °F - - ()
Min Temperature 72 °F - - ()
Cooling Degree Days 11    
Growing Degree Days 26 (Base 50)    
Moisture  
Dew Point 61 °F    
Average Humidity 57    
Maximum Humidity 69    
Minimum Humidity 40    
Precipitation  
Precipitation 0.00 in - - ()
Sea Level Pressure  
Sea Level Pressure 29.93 in    
Wind  
Wind Speed 16 mph ()    
Max Wind Speed 23 mph    
Max Gust Speed -    
T = Trace of Precipitation, MM = Missing Value Source: Averaged Metar Reports

Daily Weather History Graph

Daily Weather History Graph

Search for Another Location

Airport or City:

Trip Planner

Search our weather history database for the weather conditions in past years. The results will help you decide how hot, cold, wet, or windy it might be!

Date:

Astronomy

Nov. 07, 2012 Rise Set
Actual Time 5:19 AM AEST 6:16 PM AEST
Civil Twilight 4:55 AM AEST 6:40 PM AEST
Nautical Twilight 4:28 AM AEST 7:07 PM AEST
Astronomical Twilight 4:00 AM AEST 7:35 PM AEST
Moon 12:01 AM AEST (11/7) 11:46 AM AEST (11/7)
Length of Visible Light 13h 44m
Length of Day
12h 57m
Waning Gibbous, 49% of the Moon is Illuminated
Nov 7
Waning Gibbous
Nov 14
New
Nov 21
First Quarter
Nov 29
Full
Dec 7
Last Quarter

Hourly Weather History & Observations

Time (AEST) Temp. Heat Index Dew Point Humidity Pressure Visibility Wind Dir Wind Speed Gust Speed Precip Events Conditions
12:00 AM 75 °F - 61 °F 52% 29.96 in - ESE 19.6 mph - -  
12:00 AM 75.2 °F - 60.8 °F 61% 29.95 in - ESE 19.6 mph - N/A   Unknown
12:30 AM 73.4 °F - 59.0 °F 61% 29.95 in - ESE 21.9 mph - N/A   Unknown
1:00 AM 73.4 °F - 59.0 °F 61% 29.95 in - ESE 20.7 mph - N/A   Unknown
1:30 AM 73.4 °F - 57.2 °F 57% 29.92 in - ESE 23.0 mph - N/A   Unknown
2:00 AM 73.4 °F - 59.0 °F 61% 29.92 in - ESE 20.7 mph - N/A   Unknown
2:30 AM 73.4 °F - 57.2 °F 57% 29.92 in - ESE 21.9 mph - N/A   Unknown
3:00 AM 74 °F - 57 °F 45% 29.92 in - ESE 18.4 mph - -  
3:00 AM 73.4 °F - 57.2 °F 57% 29.92 in - ESE 18.4 mph - N/A   Unknown
3:30 AM 73.4 °F - 59.0 °F 61% 29.92 in - ESE 18.4 mph - N/A   Unknown
4:00 AM 73.4 °F - 57.2 °F 57% 29.95 in - SE 16.1 mph - N/A   Unknown
4:30 AM 73.4 °F - 57.2 °F 57% 29.95 in - ESE 13.8 mph - N/A   Unknown
5:00 AM 73.4 °F - 55.4 °F 53% 29.95 in - ESE 13.8 mph - N/A   Unknown
5:30 AM 73.4 °F - 59.0 °F 61% 29.95 in - ESE 15.0 mph - N/A   Unknown
6:00 AM 75 °F - 60 °F 50% 29.97 in - ESE 16.1 mph - -  
6:00 AM 75.2 °F - 60.8 °F 61% 29.98 in - ESE 16.1 mph - N/A   Unknown
6:30 AM 77.0 °F - 57.2 °F 50% 29.98 in - ESE 17.3 mph - N/A   Unknown
7:00 AM 77.0 °F - 57.2 °F 50% 29.98 in - ESE 17.3 mph - N/A   Unknown
7:30 AM 77.0 °F - 57.2 °F 50% 29.98 in - ESE 15.0 mph - N/A   Unknown
8:00 AM 78.8 °F - 57.2 °F 47% 29.98 in - East 13.8 mph - N/A   Unknown
8:30 AM 78.8 °F - 60.8 °F 54% 29.98 in - ESE 16.1 mph - N/A   Unknown
9:00 AM 79 °F - 59 °F 40% 29.98 in - ESE 15.0 mph - -  
9:00 AM 78.8 °F - 59.0 °F 51% 29.98 in - ESE 15.0 mph - N/A   Unknown
9:30 AM 80.6 °F 81.5 °F 60.8 °F 51% 29.98 in - ESE 16.1 mph - N/A   Unknown
10:00 AM 78.8 °F - 62.6 °F 57% 29.98 in - ESE 17.3 mph - N/A   Unknown
10:30 AM 80.6 °F 81.5 °F 60.8 °F 51% 29.98 in - ESE 17.3 mph - N/A   Unknown
11:00 AM 78.8 °F - 60.8 °F 54% 29.95 in - East 18.4 mph - N/A   Unknown
11:30 AM 80.6 °F 81.5 °F 60.8 °F 51% 29.95 in - East 16.1 mph - N/A   Unknown
12:00 PM 80 °F - 62 °F 44% 29.94 in - East 16.1 mph - -  
12:00 PM 80.6 °F 81.8 °F 62.6 °F 54% 29.95 in - East 16.1 mph - N/A   Unknown
12:30 PM 80.6 °F 81.8 °F 62.6 °F 54% 29.92 in - East 16.1 mph - N/A   Unknown
1:00 PM 80.6 °F 81.5 °F 60.8 °F 51% 29.92 in - East 13.8 mph - N/A   Unknown
1:30 PM 78.8 °F - 60.8 °F 54% 29.89 in - East 17.3 mph - N/A   Unknown
2:00 PM 80.6 °F 81.8 °F 62.6 °F 54% 29.89 in - ESE 15.0 mph - N/A   Unknown
2:30 PM 78.8 °F - 60.8 °F 54% 29.89 in - East 15.0 mph - N/A   Unknown
3:00 PM 78 °F - 62 °F 48% 29.88 in - East 15.0 mph - -  
3:00 PM 78.8 °F - 62.6 °F 57% 29.89 in - East 15.0 mph - N/A   Unknown
3:30 PM 78.8 °F - 60.8 °F 54% 29.86 in - East 13.8 mph - N/A   Unknown
4:00 PM 77.0 °F - 62.6 °F 61% 29.86 in - East 13.8 mph - N/A   Unknown
4:30 PM 77.0 °F - 62.6 °F 61% 29.86 in - East 12.7 mph - N/A   Unknown
5:00 PM 77.0 °F - 62.6 °F 61% 29.86 in - ESE 12.7 mph - N/A   Unknown
5:30 PM 77.0 °F - 62.6 °F 61% 29.89 in - ESE 10.4 mph - N/A   Unknown
6:00 PM 76 °F - 62 °F 52% 29.88 in - ESE 12.7 mph - -  
6:00 PM 75.2 °F - 62.6 °F 65% 29.89 in - ESE 12.7 mph - N/A   Unknown
6:30 PM 75.2 °F - 62.6 °F 65% 29.89 in - ESE 12.7 mph - N/A   Unknown
7:00 PM 75.2 °F - 62.6 °F 65% 29.89 in - ESE 12.7 mph - N/A   Unknown
7:30 PM 75.2 °F - 64.4 °F 69% 29.89 in - ESE 13.8 mph - N/A   Unknown
8:00 PM 75.2 °F - 64.4 °F 69% 29.89 in - East 17.3 mph - N/A   Unknown
8:30 PM 75.2 °F - 64.4 °F 69% 29.89 in - East 16.1 mph - N/A   Unknown
9:00 PM 75 °F - 64 °F 62% 29.90 in - East 16.1 mph - -  
9:00 PM 75.2 °F - 64.4 °F 69% 29.89 in - East 16.1 mph - N/A   Unknown
9:30 PM 75.2 °F - 64.4 °F 69% 29.92 in - East 17.3 mph - N/A   Unknown
10:00 PM 75.2 °F - 64.4 °F 69% 29.92 in - East 17.3 mph - N/A   Unknown
10:30 PM 75.2 °F - 64.4 °F 69% 29.92 in - East 16.1 mph - N/A   Unknown
11:00 PM 75.2 °F - 64.4 °F 69% 29.92 in - East 13.8 mph - N/A   Unknown
11:30 PM 75.2 °F - 64.4 °F 69% 29.89 in - East 10.4 mph - N/A   Unknown